| time (UTC) | temp C | wind direction | speed KPH | gust KPH | rain 1hr cm | rain 24hr cm | rain mn cm | humidity % | barometer mb |
| 20260510162204 | 6 | 274 | 3.2 | 17.7 | 0.23 | 1.65 | 1.32 | 91 | 1013.8 |
| 20260510161704 | 6 | 204 | 8.0 | 9.7 | 0.20 | 1.63 | 1.30 | 91 | 1013.8 |
| 20260510161205 | 6 | 245 | 3.2 | 9.7 | 0.15 | 1.57 | 1.27 | 91 | 1013.9 |
| 20260510160204 | 6 | 300 | 4.8 | 11.3 | 0.15 | 1.55 | 1.22 | 91 | 1013.6 |
| 20260510155704 | 6 | 255 | 4.8 | 17.7 | 0.15 | 1.52 | 1.17 | 91 | 1013.6 |
| 20260510155205 | 6 | 295 | 4.8 | 19.3 | 0.18 | 1.50 | 1.17 | 91 | 1013.6 |
| 20260510154205 | 6 | 290 | 6.4 | 22.5 | 0.15 | 1.50 | 1.12 | 91 | 1013.5 |
| 20260510153705 | 6 | 258 | 11.3 | 24.1 | 0.18 | 1.50 | 1.12 | 91 | 1013.4 |
| 20260510152705 | 6 | 285 | 14.5 | 22.5 | 0.20 | 1.50 | 1.12 | 91 | 1013.5 |
| 20260510152204 | 6 | 283 | 8.0 | 17.7 | 0.23 | 1.50 | 1.12 | 91 | 1013.4 |
| 20260510151705 | 6 | 324 | 9.7 | 17.7 | 0.23 | 1.47 | 1.09 | 91 | 1013.5 |
| 20260510151221 | 6 | 307 | 9.7 | 14.5 | 0.20 | 1.45 | 1.09 | 91 | 1013.5 |
| 20260510150704 | 6 | 343 | 8.0 | 11.3 | 0.20 | 1.45 | 1.07 | 90 | 1013.5 |
| 20260510150204 | 6 | 306 | 6.4 | 14.5 | 0.18 | 1.42 | 1.04 | 90 | 1013.6 |
| 20260510145705 | 6 | 305 | 9.7 | 14.5 | 0.15 | 1.37 | 0.99 | 90 | 1013.6 |
| 20260510145204 | 6 | 251 | 4.8 | 17.7 | 0.15 | 1.37 | 0.99 | 90 | 1013.6 |
| 20260510144205 | 6 | 302 | 6.4 | 29.0 | 0.15 | 1.35 | 0.97 | 90 | 1013.4 |
| 20260510143205 | 6 | 283 | 11.3 | 29.0 | 0.13 | 1.30 | 0.91 | 89 | 1013.4 |
| 20260510142705 | 6 | 320 | 14.5 | 24.1 | 0.10 | 1.27 | 0.89 | 89 | 1013.5 |
| 20260510142205 | 6 | 307 | 8.0 | 29.0 | 0.10 | 1.27 | 0.89 | 89 | 1013.4 |
| 20260510141704 | 6 | 302 | 14.5 | 38.6 | 0.08 | 1.27 | 0.89 | 88 | 1013.4 |
| 20260510141226 | 7 | 274 | 17.7 | 38.6 | 0.08 | 1.27 | 0.89 | 87 | 1013.5 |
| 20260510140705 | 7 | 309 | 17.7 | 38.6 | 0.08 | 1.27 | 0.89 | 86 | 1013.5 |
| 20260510135706 | 8 | 0 | 4.8 | 25.7 | 0.10 | 1.24 | 0.86 | 87 | 1013.2 |
| 20260510135215 | 8 | 269 | 4.8 | 25.7 | 0.18 | 1.22 | 0.84 | 87 | 1013.0 |
| 20260510134204 | 8 | 278 | 8.0 | 29.0 | 0.33 | 1.17 | 0.79 | 88 | 1013.0 |
| 20260510133705 | 8 | 1 | 4.8 | 29.0 | 0.36 | 1.17 | 0.79 | 88 | 1013.1 |
| 20260510133205 | 8 | 243 | 14.5 | 24.1 | 0.36 | 1.17 | 0.79 | 88 | 1013.3 |
| 20260510132705 | 7 | 30 | 4.8 | 24.1 | 0.36 | 1.17 | 0.79 | 88 | 1013.1 |
| 20260510132205 | 7 | 241 | 12.9 | 24.1 | 0.36 | 1.17 | 0.79 | 88 | 1013.2 |
| 20260510131707 | 7 | 307 | 3.2 | 22.5 | 0.36 | 1.17 | 0.79 | 88 | 1013.1 |
| 20260510131204 | 8 | 0 | 9.7 | 22.5 | 0.36 | 1.17 | 0.79 | 88 | 1013.2 |
| 20260510130705 | 8 | 303 | 8.0 | 24.1 | 0.36 | 1.17 | 0.79 | 88 | 1013.2 |
| 20260510130205 | 8 | 272 | 8.0 | 27.4 | 0.33 | 1.17 | 0.79 | 87 | 1013.3 |
| 20260510125204 | 8 | 214 | 14.5 | 29.0 | 0.23 | 1.02 | 0.64 | 85 | 1013.4 |
| 20260510124206 | 8 | 102 | 1.6 | 17.7 | 0.13 | 0.84 | 0.46 | 86 | 1012.8 |
| 20260510123704 | 8 | 196 | 6.4 | 17.7 | 0.15 | 0.81 | 0.43 | 86 | 1012.8 |
| 20260510123204 | 8 | 244 | 3.2 | 17.7 | 0.18 | 0.81 | 0.43 | 86 | 1012.8 |
| 20260510122710 | 8 | 254 | 4.8 | 17.7 | 0.20 | 0.81 | 0.43 | 87 | 1013.0 |
| 20260510122204 | 9 | 272 | 9.7 | 11.3 | 0.23 | 0.81 | 0.43 | 88 | 1013.0 |
| 20260510121705 | 8 | 30 | 4.8 | 9.7 | 0.23 | 0.81 | 0.43 | 88 | 1013.2 |
| 20260510121204 | 8 | 317 | 3.2 | 11.3 | 0.23 | 0.81 | 0.43 | 88 | 1013.2 |
| 20260510120205 | 7 | 337 | 6.4 | 32.2 | 0.23 | 0.81 | 0.43 | 87 | 1013.4 |
| 20260510115705 | 7 | 241 | 6.4 | 32.2 | 0.23 | 0.81 | 0.43 | 86 | 1013.5 |
| 20260510115204 | 7 | 186 | 8.0 | 32.2 | 0.15 | 0.76 | 0.38 | 86 | 1013.6 |
| 20260510114704 | 7 | 228 | 11.3 | 24.1 | 0.13 | 0.71 | 0.33 | 85 | 1013.8 |
| 20260510114205 | 8 | 243 | 11.3 | 24.1 | 0.15 | 0.71 | 0.33 | 85 | 1013.9 |
| 20260510113704 | 8 | 261 | 8.0 | 19.3 | 0.10 | 0.66 | 0.28 | 85 | 1014.0 |
| 20260510112705 | 8 | 195 | 8.0 | 19.3 | 0.08 | 0.61 | 0.23 | 84 | 1013.8 |
| 20260510112204 | 8 | 221 | 11.3 | 22.5 | 0.05 | 0.61 | 0.23 | 84 | 1013.6 |
| 20260510111705 | 8 | 14 | 6.4 | 22.5 | 0.05 | 0.61 | 0.23 | 85 | 1013.4 |
| 20260510110705 | 8 | 82 | 4.8 | 19.3 | 0.05 | 0.61 | 0.23 | 87 | 1013.9 |
| 20260510110205 | 8 | 41 | 11.3 | 29.0 | 0.05 | 0.61 | 0.23 | 87 | 1013.8 |
| 20260510105704 | 8 | 107 | 6.4 | 29.0 | 0.05 | 0.61 | 0.23 | 87 | 1014.0 |
| 20260510105205 | 8 | 110 | 8.0 | 20.9 | 0.05 | 0.61 | 0.23 | 87 | 1013.9 |
| 20260510104705 | 8 | 61 | 6.4 | 16.1 | 0.08 | 0.58 | 0.20 | 86 | 1014.0 |
| 20260510103704 | 8 | 131 | 6.4 | 11.3 | 0.05 | 0.53 | 0.15 | 86 | 1013.9 |
| 20260510103205 | 8 | 350 | 4.8 | 17.7 | 0.05 | 0.53 | 0.15 | 86 | 1013.8 |
| 20260510102205 | 8 | 295 | 6.4 | 17.7 | 0.05 | 0.53 | 0.15 | 86 | 1013.9 |
| 20260510101704 | 8 | 183 | 4.8 | 11.3 | 0.10 | 0.53 | 0.15 | 86 | 1014.1 |
| 20260510101205 | 8 | 275 | 6.4 | 22.5 | 0.13 | 0.53 | 0.15 | 87 | 1014.1 |
| 20260510100705 | 7 | 314 | 3.2 | 22.5 | 0.13 | 0.53 | 0.15 | 88 | 1014.0 |
| 20260510095705 | 7 | 161 | 4.8 | 17.7 | 0.15 | 0.53 | 0.15 | 87 | 1014.1 |
| 20260510094704 | 7 | 204 | 9.7 | 16.1 | 0.10 | 0.51 | 0.13 | 87 | 1014.2 |
| 20260510094204 | 7 | 221 | 6.4 | 16.1 | 0.13 | 0.51 | 0.13 | 87 | 1014.1 |
| 20260510093705 | 7 | 217 | 6.4 | 14.5 | 0.13 | 0.51 | 0.13 | 87 | 1014.1 |
| 20260510093205 | 7 | 104 | 3.2 | 14.5 | 0.13 | 0.51 | 0.13 | 87 | 1014.2 |
| 20260510092705 | 7 | 314 | 3.2 | 16.1 | 0.10 | 0.48 | 0.10 | 86 | 1014.1 |
| 20260510092204 | 7 | 321 | 4.8 | 16.1 | 0.08 | 0.46 | 0.08 | 86 | 1014.1 |
| 20260510091705 | 7 | 141 | 3.2 | 11.3 | 0.05 | 0.43 | 0.05 | 86 | 1014.1 |
| 20260510091205 | 7 | 16 | 4.8 | 17.7 | 0.05 | 0.43 | 0.05 | 86 | 1014.0 |
| 20260510090204 | 7 | 206 | 6.4 | 20.9 | 0.03 | 0.41 | 0.03 | 84 | 1013.9 |
| 20260510085705 | 7 | 157 | 3.2 | 20.9 | 0.03 | 0.41 | 0.03 | 83 | 1014.0 |
| 20260510085205 | 7 | 296 | 3.2 | 20.9 | 0.03 | 0.41 | 0.03 | 82 | 1014.0 |
| 20260510084204 | 8 | 227 | 4.8 | 14.5 | 0.00 | 0.38 | 0.00 | 82 | 1014.0 |
| 20260510083705 | 8 | 188 | 3.2 | 19.3 | 0.00 | 0.38 | 0.00 | 81 | 1013.9 |
| 20260510083205 | 8 | 109 | 0.0 | 19.3 | 0.00 | 0.38 | 0.00 | 81 | 1014.0 |
| 20260510082704 | 8 | 203 | 6.4 | 19.3 | 0.00 | 0.38 | 0.00 | 80 | 1013.9 |
| 20260510082205 | 8 | 172 | 9.7 | 20.9 | 0.00 | 0.38 | 0.00 | 80 | 1013.9 |
| 20260510081705 | 8 | 266 | 8.0 | 24.1 | 0.00 | 0.38 | 0.00 | 80 | 1013.9 |
| 20260510081205 | 8 | 278 | 0.0 | 27.4 | 0.00 | 0.38 | 0.00 | 81 | 1013.9 |
| 20260510080705 | 8 | 192 | 12.9 | 27.4 | 0.00 | 0.38 | 0.00 | 80 | 1013.9 |
| 20260510080205 | 8 | 261 | 4.8 | 19.3 | 0.00 | 0.38 | 0.00 | 80 | 1013.9 |
| 20260510075705 | 8 | 329 | 3.2 | 19.3 | 0.00 | 0.38 | 0.00 | 80 | 1013.9 |
| 20260510075204 | 8 | 27 | 6.4 | 19.3 | 0.00 | 0.38 | 0.00 | 81 | 1013.8 |
| 20260510074704 | 8 | 72 | 8.0 | 19.3 | 0.00 | 0.38 | 0.00 | 82 | 1013.8 |
| 20260510074204 | 8 | 133 | 8.0 | 19.3 | 0.00 | 0.38 | 0.00 | 82 | 1013.8 |
| 20260510073205 | 7 | 279 | 8.0 | 22.5 | 0.00 | 0.38 | 0.00 | 83 | 1013.6 |
| 20260510072705 | 7 | 234 | 8.0 | 22.5 | 0.00 | 0.38 | 0.00 | 83 | 1013.6 |
| 20260510071705 | 7 | 189 | 4.8 | 16.1 | 0.00 | 0.38 | 0.00 | 84 | 1013.8 |
| 20260510070204 | 7 | 299 | 6.4 | 11.3 | 0.00 | 0.38 | 0.00 | 85 | 1013.5 |
| 20260510065704 | 6 | 283 | 3.2 | 8.0 | 0.00 | 0.38 | 0.00 | 86 | 1013.6 |
| 20260510065204 | 6 | 288 | 0.0 | 14.5 | 0.00 | 0.38 | 0.00 | 86 | 1013.5 |
| 20260510064705 | 6 | 281 | 3.2 | 14.5 | 0.00 | 0.38 | 0.00 | 86 | 1013.8 |
| 20260510064204 | 6 | 306 | 4.8 | 14.5 | 0.00 | 0.38 | 0.00 | 86 | 1013.8 |
| 20260510063204 | 6 | 283 | 6.4 | 16.1 | 0.00 | 0.38 | 0.00 | 86 | 1013.6 |
| 20260510062205 | 6 | 283 | 4.8 | 20.9 | 0.00 | 0.38 | 0.00 | 86 | 1013.6 |
| 20260510061705 | 6 | 289 | 4.8 | 20.9 | 0.00 | 0.38 | 0.00 | 86 | 1013.5 |
| 20260510060723 | 6 | 195 | 8.0 | 14.5 | 0.00 | 0.38 | 0.00 | 86 | 1013.4 |
| 20260510055704 | 6 | 268 | 1.6 | 16.1 | 0.00 | 0.38 | 0.00 | 86 | 1013.2 |
| 20260510054704 | 6 | 307 | 3.2 | 22.5 | 0.00 | 0.38 | 0.00 | 86 | 1013.2 |
| 20260510053704 | 6 | 261 | 8.0 | 14.5 | 0.00 | 0.38 | 0.00 | 86 | 1013.2 |
| 20260510052705 | 6 | 216 | 6.4 | 16.1 | 0.00 | 0.38 | 0.00 | 86 | 1013.0 |
| 20260510052205 | 6 | 312 | 9.7 | 16.1 | 0.00 | 0.38 | 0.00 | 86 | 1013.0 |
| 20260510051705 | 6 | 271 | 8.0 | 16.1 | 0.00 | 0.38 | 0.00 | 86 | 1013.0 |
| 20260510051204 | 6 | 230 | 8.0 | 17.7 | 0.00 | 0.38 | 0.00 | 86 | 1012.8 |
| 20260510050227 | 6 | 219 | 8.0 | 25.7 | 0.00 | 0.38 | 0.00 | 86 | 1012.8 |
| 20260510045204 | 6 | 305 | 16.1 | 30.6 | 0.00 | 0.38 | 0.00 | 86 | 1012.8 |
| 20260510044705 | 6 | 283 | 9.7 | 30.6 | 0.00 | 0.38 | 0.00 | 86 | 1013.1 |
| 20260510043705 | 6 | 285 | 11.3 | 22.5 | 0.00 | 0.38 | 0.00 | 86 | 1012.8 |
| 20260510043205 | 6 | 203 | 9.7 | 22.5 | 0.00 | 0.38 | 0.00 | 86 | 1012.8 |
| 20260510042205 | 6 | 235 | 12.9 | 24.1 | 0.00 | 0.38 | 0.00 | 86 | 1013.0 |
| 20260510041704 | 6 | 230 | 11.3 | 24.1 | 0.00 | 0.38 | 0.00 | 87 | 1013.0 |
| 20260510040705 | 6 | 244 | 9.7 | 22.5 | 0.00 | 0.38 | 0.00 | 87 | 1013.0 |
| 20260510040205 | 6 | 180 | 12.9 | 25.7 | 0.00 | 0.38 | 0.00 | 87 | 1013.0 |
| 20260510035705 | 6 | 252 | 12.9 | 25.7 | 0.00 | 0.38 | 0.00 | 87 | 1013.1 |
| 20260510035205 | 6 | 233 | 9.7 | 24.1 | 0.00 | 0.38 | 0.00 | 87 | 1013.2 |
| 20260510034204 | 6 | 219 | 14.5 | 20.9 | 0.00 | 0.38 | 0.00 | 87 | 1013.4 |
| 20260510033704 | 6 | 285 | 11.3 | 17.7 | 0.00 | 0.38 | 0.00 | 86 | 1013.3 |
| 20260510033205 | 6 | 223 | 4.8 | 22.5 | 0.00 | 0.38 | 0.00 | 86 | 1013.4 |
| 20260510032705 | 6 | 275 | 6.4 | 22.5 | 0.00 | 0.38 | 0.00 | 86 | 1013.3 |
| 20260510032205 | 6 | 247 | 8.0 | 22.5 | 0.00 | 0.38 | 0.00 | 85 | 1013.3 |
| 20260510031722 | 6 | 209 | 4.8 | 20.9 | 0.00 | 0.38 | 0.00 | 85 | 1013.4 |
| 20260510030205 | 6 | 337 | 6.4 | 20.9 | 0.00 | 0.38 | 0.00 | 85 | 1013.6 |
| 20260510025704 | 6 | 300 | 3.2 | 19.3 | 0.00 | 0.38 | 0.00 | 85 | 1013.5 |
| 20260510025205 | 6 | 266 | 8.0 | 24.1 | 0.00 | 0.38 | 0.00 | 85 | 1013.5 |
| 20260510024705 | 6 | 199 | 8.0 | 25.7 | 0.00 | 0.38 | 0.00 | 85 | 1013.5 |
| 20260510024204 | 6 | 190 | 11.3 | 25.7 | 0.00 | 0.38 | 0.00 | 86 | 1013.5 |
| 20260510023705 | 6 | 227 | 19.3 | 14.5 | 0.00 | 0.38 | 0.00 | 86 | 1013.6 |
| 20260510023205 | 6 | 261 | 3.2 | 14.5 | 0.00 | 0.38 | 0.00 | 85 | 1013.6 |
| 20260510022704 | 6 | 282 | 4.8 | 17.7 | 0.00 | 0.38 | 0.00 | 85 | 1013.6 |
| 20260510022204 | 6 | 183 | 6.4 | 17.7 | 0.00 | 0.38 | 0.00 | 85 | 1013.6 |
| 20260510021705 | 6 | 182 | 4.8 | 19.3 | 0.00 | 0.38 | 0.00 | 85 | 1013.6 |
| 20260510021205 | 6 | 193 | 4.8 | 19.3 | 0.00 | 0.38 | 0.00 | 85 | 1013.8 |
| 20260510020704 | 7 | 281 | 8.0 | 24.1 | 0.00 | 0.38 | 0.00 | 85 | 1013.6 |
| 20260510020204 | 7 | 307 | 9.7 | 24.1 | 0.00 | 0.38 | 0.00 | 84 | 1013.6 |
| 20260510015705 | 7 | 252 | 6.4 | 24.1 | 0.00 | 0.38 | 0.00 | 85 | 1013.8 |
| 20260510015204 | 7 | 149 | 8.0 | 17.7 | 0.00 | 0.38 | 0.00 | 85 | 1013.6 |
| 20260510014704 | 7 | 266 | 6.4 | 19.3 | 0.00 | 0.38 | 0.00 | 85 | 1013.6 |
| 20260510014204 | 7 | 269 | 8.0 | 19.3 | 0.00 | 0.38 | 0.00 | 85 | 1013.6 |
| 20260510013705 | 7 | 230 | 9.7 | 25.7 | 0.00 | 0.38 | 0.00 | 85 | 1013.5 |
| 20260510013205 | 7 | 230 | 8.0 | 25.7 | 0.00 | 0.38 | 0.00 | 85 | 1013.6 |
| 20260510012205 | 7 | 281 | 8.0 | 27.4 | 0.00 | 0.38 | 0.00 | 85 | 1013.8 |
| 20260510011705 | 7 | 282 | 4.8 | 27.4 | 0.00 | 0.38 | 0.00 | 85 | 1013.9 |
| 20260510011204 | 7 | 235 | 11.3 | 27.4 | 0.00 | 0.38 | 0.00 | 85 | 1014.0 |
| 20260510010705 | 7 | 185 | 6.4 | 17.7 | 0.00 | 0.38 | 0.00 | 85 | 1013.9 |
| 20260510010204 | 7 | 200 | 9.7 | 20.9 | 0.00 | 0.38 | 0.00 | 85 | 1013.9 |
| 20260510004704 | 7 | 293 | 9.7 | 22.5 | 0.00 | 0.38 | 0.00 | 84 | 1014.1 |
| 20260510003705 | 7 | 243 | 11.3 | 41.8 | 0.00 | 0.38 | 0.00 | 84 | 1014.1 |
| 20260510003205 | 7 | 257 | 9.7 | 41.8 | 0.00 | 0.38 | 0.00 | 84 | 1014.3 |
| 20260510002705 | 7 | 282 | 9.7 | 41.8 | 0.00 | 0.38 | 0.00 | 84 | 1014.6 |
| 20260510002205 | 7 | 243 | 6.4 | 20.9 | 0.00 | 0.38 | 0.00 | 84 | 1014.4 |
| 20260510001704 | 7 | 257 | 4.8 | 24.1 | 0.00 | 0.38 | 0.00 | 84 | 1014.4 |
| 20260510001205 | 7 | 231 | 6.4 | 24.1 | 0.00 | 0.38 | 0.00 | 84 | 1014.4 |
| 20260510000733 | 7 | 172 | 9.7 | 24.1 | 0.00 | 0.38 | 0.00 | 84 | 1014.4 |
| 20260510000205 | 7 | 183 | 11.3 | 16.1 | 0.00 | 0.38 | 0.38 | 84 | 1014.4 |
| 20260509235205 | 7 | 192 | 8.0 | 22.5 | 0.00 | 0.38 | 0.38 | 84 | 1014.4 |
| 20260509234705 | 7 | 221 | 3.2 | 22.5 | 0.00 | 0.38 | 0.38 | 84 | 1014.4 |
| 20260509234205 | 7 | 268 | 9.7 | 19.3 | 0.00 | 0.38 | 0.38 | 84 | 1014.6 |
| 20260509233704 | 7 | 261 | 9.7 | 19.3 | 0.00 | 0.38 | 0.38 | 84 | 1014.4 |
| 20260509233204 | 7 | 141 | 4.8 | 19.3 | 0.00 | 0.38 | 0.38 | 84 | 1014.6 |
| 20260509232705 | 7 | 203 | 9.7 | 19.3 | 0.00 | 0.38 | 0.38 | 85 | 1014.4 |
| 20260509232204 | 7 | 133 | 3.2 | 19.3 | 0.00 | 0.38 | 0.38 | 84 | 1014.6 |
| 20260509231705 | 7 | 192 | 6.4 | 17.7 | 0.00 | 0.38 | 0.38 | 84 | 1014.4 |
| 20260509231205 | 7 | 235 | 4.8 | 20.9 | 0.00 | 0.38 | 0.38 | 85 | 1014.6 |
| 20260509230704 | 7 | 281 | 8.0 | 20.9 | 0.00 | 0.38 | 0.38 | 85 | 1014.7 |
| 20260509230205 | 7 | 193 | 6.4 | 20.9 | 0.00 | 0.38 | 0.38 | 85 | 1014.7 |
| 20260509225704 | 7 | 226 | 11.3 | 17.7 | 0.00 | 0.38 | 0.38 | 86 | 1014.7 |
| 20260509225204 | 7 | 24 | 3.2 | 17.7 | 0.00 | 0.38 | 0.38 | 85 | 1014.6 |
| 20260509224704 | 7 | 321 | 3.2 | 17.7 | 0.00 | 0.38 | 0.38 | 85 | 1014.6 |
| 20260509224205 | 7 | 326 | 9.7 | 17.7 | 0.00 | 0.38 | 0.38 | 86 | 1014.7 |
| 20260509223705 | 7 | 264 | 6.4 | 17.7 | 0.00 | 0.38 | 0.38 | 86 | 1014.3 |
| 20260509223205 | 7 | 293 | 8.0 | 14.5 | 0.00 | 0.38 | 0.38 | 86 | 1014.4 |
| 20260509222705 | 7 | 348 | 3.2 | 19.3 | 0.00 | 0.38 | 0.38 | 86 | 1014.2 |
| 20260509221705 | 7 | 128 | 6.4 | 24.1 | 0.00 | 0.38 | 0.38 | 86 | 1014.2 |
| 20260509221204 | 7 | 58 | 4.8 | 24.1 | 0.00 | 0.38 | 0.38 | 85 | 1014.3 |
| 20260509220705 | 7 | 72 | 8.0 | 24.1 | 0.00 | 0.38 | 0.38 | 86 | 1014.3 |
| 20260509215705 | 7 | 0 | 8.0 | 14.5 | 0.00 | 0.38 | 0.38 | 86 | 1014.3 |
| 20260509215204 | 7 | 66 | 6.4 | 17.7 | 0.00 | 0.38 | 0.38 | 86 | 1014.3 |
| 20260509214705 | 7 | 31 | 4.8 | 17.7 | 0.00 | 0.38 | 0.38 | 86 | 1014.2 |
| 20260509214205 | 7 | 106 | 6.4 | 17.7 | 0.00 | 0.38 | 0.38 | 86 | 1014.1 |
| 20260509212705 | 8 | 58 | 3.2 | 24.1 | 0.00 | 0.38 | 0.38 | 86 | 1014.1 |
| 20260509211704 | 8 | 185 | 8.0 | 17.7 | 0.00 | 0.38 | 0.38 | 86 | 1014.0 |
| 20260509211224 | 8 | 23 | 4.8 | 17.7 | 0.00 | 0.38 | 0.38 | 86 | 1014.1 |
| 20260509210705 | 8 | 59 | 1.6 | 16.1 | 0.00 | 0.38 | 0.38 | 86 | 1014.0 |
| 20260509210205 | 8 | 44 | 6.4 | 16.1 | 0.00 | 0.38 | 0.38 | 86 | 1014.1 |
| 20260509205704 | 8 | 338 | 6.4 | 14.5 | 0.00 | 0.38 | 0.38 | 86 | 1014.1 |
| 20260509205205 | 8 | 32 | 6.4 | 20.9 | 0.00 | 0.38 | 0.38 | 86 | 1014.0 |
| 20260509204705 | 8 | 231 | 6.4 | 20.9 | 0.03 | 0.38 | 0.38 | 86 | 1014.1 |
| 20260509204204 | 8 | 305 | 4.8 | 25.7 | 0.03 | 0.38 | 0.38 | 86 | 1014.2 |
| 20260509203704 | 8 | 312 | 8.0 | 25.7 | 0.03 | 0.38 | 0.38 | 86 | 1014.2 |
| 20260509203204 | 8 | 154 | 6.4 | 25.7 | 0.03 | 0.38 | 0.38 | 86 | 1014.1 |
| 20260509202704 | 8 | 87 | 3.2 | 8.0 | 0.03 | 0.38 | 0.38 | 86 | 1013.9 |
| 20260509202205 | 8 | 288 | 1.6 | 11.3 | 0.03 | 0.38 | 0.38 | 86 | 1013.8 |
| 20260509201705 | 8 | 219 | 0.0 | 11.3 | 0.03 | 0.38 | 0.38 | 87 | 1013.6 |
| 20260509201204 | 8 | 178 | 6.4 | 11.3 | 0.03 | 0.38 | 0.38 | 87 | 1013.5 |
| 20260509200705 | 8 | 186 | 4.8 | 8.0 | 0.03 | 0.38 | 0.38 | 88 | 1013.6 |
| 20260509200205 | 8 | 45 | 1.6 | 8.0 | 0.03 | 0.38 | 0.38 | 88 | 1013.4 |
| 20260509195205 | 8 | 23 | 4.8 | 9.7 | 0.03 | 0.38 | 0.38 | 88 | 1013.3 |
| 20260509194705 | 8 | 183 | 1.6 | 11.3 | 0.00 | 0.36 | 0.36 | 89 | 1013.3 |
| 20260509193205 | 8 | 278 | 1.6 | 9.7 | 0.03 | 0.36 | 0.36 | 89 | 1013.2 |
| 20260509192705 | 8 | 290 | 3.2 | 9.7 | 0.05 | 0.36 | 0.36 | 89 | 1013.2 |
| 20260509192205 | 8 | 195 | 3.2 | 4.8 | 0.10 | 0.36 | 0.36 | 89 | 1013.2 |
| 20260509191704 | 8 | 316 | 0.0 | 4.8 | 0.20 | 0.36 | 0.36 | 89 | 1013.1 |
| 20260509190704 | 8 | 296 | 1.6 | 9.7 | 0.28 | 0.36 | 0.36 | 89 | 1013.1 |
| 20260509190205 | 8 | 282 | 3.2 | 9.7 | 0.28 | 0.36 | 0.36 | 89 | 1012.8 |
| 20260509185705 | 8 | 282 | 3.2 | 9.7 | 0.28 | 0.36 | 0.36 | 89 | 1013.0 |
| 20260509185205 | 8 | 290 | 3.2 | 9.7 | 0.28 | 0.36 | 0.36 | 89 | 1013.0 |
| 20260509184704 | 8 | 250 | 6.4 | 9.7 | 0.28 | 0.36 | 0.36 | 89 | 1012.8 |
| 20260509184205 | 8 | 176 | 3.2 | 9.7 | 0.28 | 0.36 | 0.36 | 89 | 1012.8 |
| 20260509183705 | 8 | 217 | 3.2 | 14.5 | 0.28 | 0.36 | 0.36 | 88 | 1012.6 |
| 20260509183204 | 8 | 168 | 3.2 | 14.5 | 0.23 | 0.33 | 0.33 | 88 | 1012.6 |
| 20260509182704 | 8 | 113 | 4.8 | 14.5 | 0.23 | 0.30 | 0.30 | 87 | 1012.5 |
| 20260509182204 | 8 | 87 | 1.6 | 8.0 | 0.15 | 0.23 | 0.23 | 87 | 1012.4 |
| 20260509181705 | 8 | 111 | 3.2 | 4.8 | 0.10 | 0.15 | 0.15 | 87 | 1012.4 |
| 20260509181204 | 8 | 137 | 3.2 | 4.8 | 0.05 | 0.13 | 0.13 | 87 | 1012.3 |
| 20260509180704 | 9 | 71 | 0.0 | 4.8 | 0.03 | 0.08 | 0.08 | 86 | 1012.2 |
| 20260509180204 | 9 | 117 | 1.6 | 4.8 | 0.03 | 0.08 | 0.08 | 86 | 1012.2 |
| 20260509175704 | 9 | 79 | 0.0 | 4.8 | 0.03 | 0.08 | 0.08 | 85 | 1012.1 |
| 20260509175205 | 9 | 79 | 0.0 | 4.8 | 0.03 | 0.08 | 0.08 | 85 | 1011.9 |
| 20260509174704 | 9 | 79 | 0.0 | 4.8 | 0.03 | 0.08 | 0.08 | 85 | 1012.1 |
| 20260509174205 | 9 | 79 | 0.0 | 4.8 | 0.03 | 0.08 | 0.08 | 85 | 1011.9 |
| 20260509173705 | 9 | 78 | 1.6 | 6.4 | 0.03 | 0.08 | 0.08 | 84 | 1011.9 |
| 20260509173205 | 9 | 79 | 1.6 | 9.7 | 0.03 | 0.08 | 0.08 | 83 | 1011.8 |
| 20260509172205 | 9 | 71 | 3.2 | 9.7 | 0.00 | 0.05 | 0.05 | 81 | 1011.8 |
| 20260509171705 | 9 | 80 | 6.4 | 11.3 | 0.00 | 0.05 | 0.05 | 81 | 1011.7 |
| 20260509171204 | 10 | 79 | 6.4 | 11.3 | 0.00 | 0.05 | 0.05 | 80 | 1011.8 |
| 20260509170704 | 10 | 116 | 3.2 | 11.3 | 0.00 | 0.05 | 0.05 | 79 | 1011.7 |
| 20260509170205 | 10 | 151 | 4.8 | 17.7 | 0.00 | 0.05 | 0.05 | 79 | 1011.5 |
| 20260509165704 | 11 | 138 | 4.8 | 17.7 | 0.03 | 0.05 | 0.05 | 79 | 1011.4 |
| 20260509164704 | 11 | 168 | 8.0 | 17.7 | 0.05 | 0.05 | 0.05 | 77 | 1011.1 |
| 20260509163704 | 11 | 278 | 1.6 | 16.1 | 0.05 | 0.05 | 0.05 | 77 | 1010.9 |
| 20260509163205 | 11 | 286 | 4.8 | 16.1 | 0.05 | 0.05 | 0.05 | 78 | 1011.4 |